Location: Bakov nad Jizerou
(50.4784°N, 14.9394°E)
Time: 09:46:55
(UTC+00:00)

Cosmos 1536 Rocket - Pass Details

Date: 25 October 2021
Orbit: 605 x 633 km, 82.5° (Epoch: 28 November)

Event Time Altitude Azimuth Distance (km) Brightness Sun altitude
Rises 16:28:24 0° 338° (NNW) 2,875 7.1 -7.0°
Reaches altitude 10° 16:31:03 10° 322° (NW) 1,964 6.5 -7.4°
Maximum altitude 16:34:15 20° 274° (W) 1,400 6.6 -7.9°
Drops below altitude 10° 16:37:26 10° 226° (SW) 1,953 7.1 -8.4°
Sets 16:40:04 0° 210° (SSW) 2,853 7.6 -8.8°
